Zurück zum Katalog

STARLINK-37368

AktivKommunikationVLEO
NORAD 69253·PAYLOAD·🇺🇸 United States

Gestartet May 29, 2026 von Cape Canaveral Space Force Station

Loading…

Nächste Überflüge (nächste 24 Stunden)

TLE

AktuellSource: CelesTrak SupGP

Epoche: Sep 15, 2026, 03:45 UTC

1 69253C 26117R   26258.15673611 -.00013241  00000+0 -39126-3 0  2589
2 69253  53.1587 178.4568 0001039  81.0748 154.8459 15.34393993    12

Verfolge STARLINK-37368 in Echtzeit mit AllMySat

Download on the App Store